Find Starlink 34867

NORAD ID: 65459 Int'l Des: 2025-195 Owner: SPXS Country: US Constellation: starlink operational
LEOCIRCULAR

現在のビュー

3D地球を読み込み中...

About Starlink 34867

Starlink 34867 (NORAD 65459) is a starlink constellation satellite (v2 mini) launched Sep 3, 2025 by SPXS of US. It operates in LEO, CIRCULAR orbit with a mass of 575.00 kg.

次回通過

Passes for default location (London). Set your location on the main map for personalized predictions.

高度履歴

Loading altitude history...

軌道要素

1 65459U 25195B 26263.17991144 .00023880 00000-0 71529-3 0 9994
2 65459 53.1586 71.0635 0000995 255.6992 104.3900 15.34415174 59828
Epoch: Sep 20, 2026 • Age: 11 hours

現在のステータス

高度 469.6 km
遠地点 / 近地点 N/A
速度 7.64 km/s
衛星直下点 52.13°N, 91.42°W
打ち上げ日 Sep 3, 2025
運用期間 1 year
タイプ internet

技術仕様

分類 Payload
質量 575.00 kg
乾燥質量 530.00 kg
長さ 0.30 m
スパン 29.00 m
形状 ? Box + pan
製造者 SPXS
バスタイプ Starlink V2MO
フェーズステータス In Orbit
所有者/国 SPXS/US

Most Searched